Time,TemperatureF,DewpointF,PressureIn,WindDirection,WindDirectionDegrees,WindSpeedMPH,WindSpeedGustMPH,Humidity,HourlyPrecipIn,Conditions,Clouds,dailyrainin,SoftwareType,DateUTC
2013-11-14 00:00:00,27.0,13.4,29.41,NNE,28,0.0,0.0,56,0.00,,SKC,0.00,VWS V14.00,2013-11-14 05:00:00,
2013-11-14 00:05:00,27.0,13.4,29.41,NNE,27,0.0,0.0,56,0.00,,SKC,0.00,VWS V14.00,2013-11-14 05:05:00,
2013-11-14 00:10:00,27.0,13.4,29.41,NNE,28,0.0,0.0,56,0.00,,SKC,0.00,VWS V14.00,2013-11-14 05:10:00,
2013-11-14 00:15:00,26.8,13.6,29.41,NNE,28,0.0,0.0,57,0.00,,SKC,0.00,VWS V14.00,2013-11-14 05:15:00,
2013-11-14 00:20:00,26.8,13.6,29.41,NNE,27,0.0,0.0,57,0.00,,SKC,0.00,VWS V14.00,2013-11-14 05:20:00,
2013-11-14 00:25:00,27.0,14.2,29.41,NNE,27,0.0,0.0,58,0.00,,SKC,0.00,VWS V14.00,2013-11-14 05:25:00,
2013-11-14 00:30:00,27.1,14.3,29.41,NNE,28,0.0,0.0,58,0.00,,SKC,0.00,VWS V14.00,2013-11-14 05:30:00,
2013-11-14 00:35:00,27.3,14.5,29.41,NNE,27,0.0,0.0,58,0.00,,SKC,0.00,VWS V14.00,2013-11-14 05:35:00,
2013-11-14 00:40:00,27.3,14.1,29.41,NNE,28,0.0,0.0,57,0.00,,SKC,0.00,VWS V14.00,2013-11-14 05:40:00,
2013-11-14 00:45:00,27.1,13.9,29.41,SSE,150,0.0,0.0,57,0.00,,SKC,0.00,VWS V14.00,2013-11-14 05:45:00,
2013-11-14 00:50:00,26.8,13.6,29.41,SSE,150,0.0,0.0,57,0.00,,SKC,0.00,VWS V14.00,2013-11-14 05:50:00,
2013-11-14 00:55:00,26.4,13.7,29.41,SSE,151,0.0,0.0,58,0.00,,SKC,0.00,VWS V14.00,2013-11-14 05:55:00,
2013-11-14 01:00:00,26.8,14.0,29.41,SSE,150,0.0,0.0,58,0.00,,SKC,0.00,VWS V14.00,2013-11-14 06:00:00,
2013-11-14 01:05:00,26.8,14.0,29.41,SSE,151,0.0,0.0,58,0.00,,SKC,0.00,VWS V14.00,2013-11-14 06:05:00,
2013-11-14 01:10:00,27.0,14.2,29.41,SSE,151,0.0,0.0,58,0.00,,SKC,0.00,VWS V14.00,2013-11-14 06:10:00,
2013-11-14 01:15:00,26.8,14.0,29.41,SSE,151,0.0,0.0,58,0.00,,SKC,0.00,VWS V14.00,2013-11-14 06:15:00,
2013-11-14 01:20:00,26.6,13.8,29.41,SSE,150,0.0,0.0,58,0.00,,SKC,0.00,VWS V14.00,2013-11-14 06:20:00,
2013-11-14 01:25:00,26.4,14.1,29.41,SSE,150,0.0,0.0,59,0.00,,SKC,0.00,VWS V14.00,2013-11-14 06:25:00,
2013-11-14 01:30:00,26.4,14.1,29.41,SSE,151,0.0,0.0,59,0.00,,SKC,0.00,VWS V14.00,2013-11-14 06:30:00,
2013-11-14 01:35:00,26.4,14.1,29.41,SSE,150,0.0,0.0,59,0.00,,SKC,0.00,VWS V14.00,2013-11-14 06:35:00,
2013-11-14 01:40:00,26.2,13.9,29.41,SSE,151,0.0,0.0,59,0.00,,SKC,0.00,VWS V14.00,2013-11-14 06:40:00,
2013-11-14 01:45:00,26.2,13.9,29.41,SSE,151,0.0,0.0,59,0.00,,SKC,0.00,VWS V14.00,2013-11-14 06:45:00,
2013-11-14 01:50:00,26.2,13.9,29.41,SSE,151,0.0,0.0,59,0.00,,SKC,0.00,VWS V14.00,2013-11-14 06:50:00,
2013-11-14 01:55:00,26.2,14.3,29.41,SSE,151,0.0,0.0,60,0.00,,SKC,0.00,VWS V14.00,2013-11-14 06:55:00,
2013-11-14 02:00:00,26.1,13.7,29.41,SSE,150,0.0,0.0,59,0.00,,SKC,0.00,VWS V14.00,2013-11-14 07:00:00,
2013-11-14 02:05:00,25.9,13.9,29.38,SSE,151,0.0,0.0,60,0.00,,SKC,0.00,VWS V14.00,2013-11-14 07:05:00,
2013-11-14 02:10:00,25.7,13.8,29.38,SSE,150,0.0,0.0,60,0.00,,SKC,0.00,VWS V14.00,2013-11-14 07:10:00,
2013-11-14 02:15:00,25.9,13.9,29.38,SSE,150,0.0,0.0,60,0.00,,SKC,0.00,VWS V14.00,2013-11-14 07:15:00,
2013-11-14 02:20:00,25.7,13.8,29.41,SSE,150,0.0,0.0,60,0.00,,SKC,0.00,VWS V14.00,2013-11-14 07:20:00,
2013-11-14 02:26:00,25.5,13.6,29.41,SSE,151,0.0,0.0,60,0.00,,SKC,0.00,VWS V14.00,2013-11-14 07:26:00,
2013-11-14 02:31:00,25.5,13.6,29.41,SSE,151,0.0,0.0,60,0.00,,SKC,0.00,VWS V14.00,2013-11-14 07:31:00,
2013-11-14 02:36:00,25.3,13.4,29.38,SSE,150,0.0,0.0,60,0.00,,SKC,0.00,VWS V14.00,2013-11-14 07:36:00,
2013-11-14 02:41:00,25.3,13.4,29.38,SSE,151,0.0,0.0,60,0.00,,SKC,0.00,VWS V14.00,2013-11-14 07:41:00,
2013-11-14 02:46:00,25.5,13.6,29.38,SSE,150,0.0,0.0,60,0.00,,SKC,0.00,VWS V14.00,2013-11-14 07:46:00,
2013-11-14 02:51:00,25.3,13.4,29.41,SSE,150,0.0,0.0,60,0.00,,SKC,0.00,VWS V14.00,2013-11-14 07:51:00,
2013-11-14 02:56:00,25.3,13.4,29.41,SSE,151,0.0,0.0,60,0.00,,SKC,0.00,VWS V14.00,2013-11-14 07:56:00,
2013-11-14 03:01:00,25.2,13.2,29.41,SSE,151,0.0,0.0,60,0.00,,SKC,0.00,VWS V14.00,2013-11-14 08:01:00,
2013-11-14 03:06:00,25.0,13.1,29.41,SSE,150,0.0,0.0,60,0.00,,SKC,0.00,VWS V14.00,2013-11-14 08:06:00,
2013-11-14 03:11:00,24.8,13.3,29.41,SSE,151,0.0,0.0,61,0.00,,SKC,0.00,VWS V14.00,2013-11-14 08:11:00,
2013-11-14 03:16:00,24.8,13.3,29.41,SSE,150,0.0,0.0,61,0.00,,SKC,0.00,VWS V14.00,2013-11-14 08:16:00,
2013-11-14 03:21:00,25.0,13.4,29.41,SSE,151,0.0,0.0,61,0.00,,SKC,0.00,VWS V14.00,2013-11-14 08:21:00,
2013-11-14 03:26:00,25.0,13.4,29.41,SSE,150,0.0,0.0,61,0.00,,SKC,0.00,VWS V14.00,2013-11-14 08:26:00,
2013-11-14 03:31:00,25.0,13.4,29.41,SSE,151,0.0,0.0,61,0.00,,SKC,0.00,VWS V14.00,2013-11-14 08:31:00,
2013-11-14 03:36:00,25.2,13.6,29.41,SSE,151,0.0,0.0,61,0.00,,SKC,0.00,VWS V14.00,2013-11-14 08:36:00,
2013-11-14 03:44:00,24.8,13.3,29.41,SSE,150,0.0,0.0,61,0.00,,SKC,0.00,VWS V14.00,2013-11-14 08:44:00,
2013-11-14 03:49:00,24.6,13.1,29.38,SSE,150,0.0,0.0,61,0.00,,SKC,0.00,VWS V14.00,2013-11-14 08:49:00,
2013-11-14 03:54:00,24.6,13.1,29.38,SSE,151,0.0,0.0,61,0.00,,SKC,0.00,VWS V14.00,2013-11-14 08:54:00,
2013-11-14 03:59:00,24.4,13.3,29.38,SSE,150,0.0,0.0,62,0.00,,SKC,0.00,VWS V14.00,2013-11-14 08:59:00,
2013-11-14 04:04:00,24.4,13.3,29.41,SSE,151,0.0,0.0,62,0.00,,SKC,0.00,VWS V14.00,2013-11-14 09:04:00,
2013-11-14 04:09:00,24.4,13.3,29.41,SSE,151,0.0,0.0,62,0.00,,SKC,0.00,VWS V14.00,2013-11-14 09:09:00,
2013-11-14 04:14:00,24.4,13.3,29.41,SSE,150,0.0,0.0,62,0.00,,SKC,0.00,VWS V14.00,2013-11-14 09:14:00,
2013-11-14 04:19:00,24.4,13.3,29.41,SSE,151,0.0,0.0,62,0.00,,SKC,0.00,VWS V14.00,2013-11-14 09:19:00,
2013-11-14 04:24:00,24.3,13.5,29.41,SSE,151,0.0,0.0,63,0.00,,SKC,0.00,VWS V14.00,2013-11-14 09:24:00,
2013-11-14 04:29:00,24.3,13.5,29.41,SSE,150,0.0,0.0,63,0.00,,SKC,0.00,VWS V14.00,2013-11-14 09:29:00,
2013-11-14 04:34:00,24.1,13.3,29.41,SSE,150,0.0,0.0,63,0.00,,SKC,0.00,VWS V14.00,2013-11-14 09:34:00,
2013-11-14 04:39:00,23.7,13.0,29.41,SSE,151,0.0,0.0,63,0.00,,SKC,0.00,VWS V14.00,2013-11-14 09:39:00,
2013-11-14 04:44:00,23.7,13.3,29.41,SSE,150,0.0,0.0,64,0.00,,SKC,0.00,VWS V14.00,2013-11-14 09:44:00,
2013-11-14 04:49:00,24.1,14.0,29.41,SSE,151,0.0,0.0,65,0.00,,SKC,0.00,VWS V14.00,2013-11-14 09:49:00,
2013-11-14 04:54:00,23.9,13.9,29.41,SSE,151,0.0,0.0,65,0.00,,SKC,0.00,VWS V14.00,2013-11-14 09:54:00,
2013-11-14 04:59:00,23.9,13.9,29.41,SSE,151,0.0,0.0,65,0.00,,SKC,0.00,VWS V14.00,2013-11-14 09:59:00,
2013-11-14 05:05:00,23.9,13.5,29.41,SSE,151,0.0,0.0,64,0.00,,SKC,0.00,VWS V14.00,2013-11-14 10:05:00,
2013-11-14 05:10:00,23.9,13.9,29.41,SSE,151,0.0,0.0,65,0.00,,SKC,0.00,VWS V14.00,2013-11-14 10:10:00,
2013-11-14 05:15:00,23.7,13.3,29.41,SSE,150,0.0,0.0,64,0.00,,SKC,0.00,VWS V14.00,2013-11-14 10:15:00,
2013-11-14 05:20:00,23.7,13.3,29.41,SSE,151,0.0,0.0,64,0.00,,SKC,0.00,VWS V14.00,2013-11-14 10:20:00,
2013-11-14 05:25:00,23.9,13.5,29.41,SSE,150,0.0,0.0,64,0.00,,SKC,0.00,VWS V14.00,2013-11-14 10:25:00,
2013-11-14 05:30:00,23.9,13.5,29.41,SSE,150,0.0,0.0,64,0.00,,SKC,0.00,VWS V14.00,2013-11-14 10:30:00,
2013-11-14 05:35:00,23.9,13.5,29.41,SSE,151,0.0,0.0,64,0.00,,SKC,0.00,VWS V14.00,2013-11-14 10:35:00,
2013-11-14 05:40:00,23.9,13.5,29.41,SSE,151,0.0,0.0,64,0.00,,SKC,0.00,VWS V14.00,2013-11-14 10:40:00,
2013-11-14 05:45:00,23.9,13.5,29.41,SSE,150,0.0,0.0,64,0.00,,SKC,0.00,VWS V14.00,2013-11-14 10:45:00,
2013-11-14 05:50:00,23.7,13.3,29.41,SSE,150,0.0,0.0,64,0.00,,SKC,0.00,VWS V14.00,2013-11-14 10:50:00,
2013-11-14 05:55:00,23.5,13.5,29.41,SSE,151,0.0,0.0,65,0.00,,SKC,0.00,VWS V14.00,2013-11-14 10:55:00,
2013-11-14 06:00:00,23.4,13.4,29.41,SSE,150,0.0,0.0,65,0.00,,SKC,0.00,VWS V14.00,2013-11-14 11:00:00,
2013-11-14 06:05:00,23.4,13.4,29.41,SSE,150,0.0,0.0,65,0.00,,SKC,0.00,VWS V14.00,2013-11-14 11:05:00,
2013-11-14 06:10:00,23.4,13.4,29.41,SSE,151,0.0,0.0,65,0.00,,SKC,0.00,VWS V14.00,2013-11-14 11:10:00,
2013-11-14 06:15:00,23.5,13.5,29.41,SSE,151,0.0,0.0,65,0.00,,SKC,0.00,VWS V14.00,2013-11-14 11:15:00,
2013-11-14 06:20:00,23.4,13.4,29.41,SSE,150,0.0,0.0,65,0.00,,SKC,0.00,VWS V14.00,2013-11-14 11:20:00,
2013-11-14 06:25:00,23.2,12.8,29.41,SSE,150,0.0,0.0,64,0.00,,SKC,0.00,VWS V14.00,2013-11-14 11:25:00,
2013-11-14 06:30:00,23.2,13.2,29.41,SSE,150,0.0,0.0,65,0.00,,SKC,0.00,VWS V14.00,2013-11-14 11:30:00,
2013-11-14 06:35:00,23.2,13.2,29.41,SSE,150,0.0,0.0,65,0.00,,SKC,0.00,VWS V14.00,2013-11-14 11:35:00,
2013-11-14 06:40:00,23.2,13.2,29.41,SSE,151,0.0,0.0,65,0.00,,SKC,0.00,VWS V14.00,2013-11-14 11:40:00,
2013-11-14 06:45:00,23.2,13.2,29.41,SSE,151,0.0,0.0,65,0.00,,SKC,0.00,VWS V14.00,2013-11-14 11:45:00,
2013-11-14 06:50:00,23.2,13.2,29.41,SSE,151,0.0,0.0,65,0.00,,SKC,0.00,VWS V14.00,2013-11-14 11:50:00,
2013-11-14 06:55:00,23.4,13.4,29.41,SSE,150,0.0,0.0,65,0.00,,SKC,0.00,VWS V14.00,2013-11-14 11:55:00,
2013-11-14 07:00:00,23.4,13.4,29.41,SSE,151,0.0,0.0,65,0.00,,SKC,0.00,VWS V14.00,2013-11-14 12:00:00,
2013-11-14 07:05:00,23.4,13.4,29.41,SSE,150,0.0,0.0,65,0.00,,SKC,0.00,VWS V14.00,2013-11-14 12:05:00,
2013-11-14 07:10:00,23.4,13.4,29.41,SSE,150,0.0,0.0,65,0.00,,SKC,0.00,VWS V14.00,2013-11-14 12:10:00,
2013-11-14 07:15:00,23.4,13.4,29.41,SSE,150,0.0,0.0,65,0.00,,SKC,0.00,VWS V14.00,2013-11-14 12:15:00,
2013-11-14 07:20:00,23.2,13.2,29.41,SSE,150,0.0,0.0,65,0.00,,SKC,0.00,VWS V14.00,2013-11-14 12:20:00,
2013-11-14 07:25:00,23.2,13.2,29.41,SSE,151,0.0,0.0,65,0.00,,SKC,0.00,VWS V14.00,2013-11-14 12:25:00,
2013-11-14 07:30:00,23.2,13.2,29.41,SSE,151,0.0,0.0,65,0.00,,SKC,0.00,VWS V14.00,2013-11-14 12:30:00,
2013-11-14 07:35:00,23.0,13.0,29.41,SSE,150,0.0,0.0,65,0.00,,SKC,0.00,VWS V14.00,2013-11-14 12:35:00,
2013-11-14 07:40:00,23.0,13.0,29.41,SSE,150,0.0,0.0,65,0.00,,SKC,0.00,VWS V14.00,2013-11-14 12:40:00,
2013-11-14 07:45:00,23.2,13.2,29.41,SSE,150,0.0,0.0,65,0.00,,SKC,0.00,VWS V14.00,2013-11-14 12:45:00,
2013-11-14 07:50:00,23.2,13.2,29.41,SSE,151,0.0,0.0,65,0.00,,SKC,0.00,VWS V14.00,2013-11-14 12:50:00,
2013-11-14 07:55:00,23.5,13.9,29.41,SSE,150,0.0,0.0,66,0.00,,SKC,0.00,VWS V14.00,2013-11-14 12:55:00,
2013-11-14 08:00:00,23.7,14.0,29.41,SSE,150,0.0,0.0,66,0.00,,SKC,0.00,VWS V14.00,2013-11-14 13:00:00,
2013-11-14 08:05:00,24.1,14.4,29.41,SSE,150,0.0,0.0,66,0.00,,SKC,0.00,VWS V14.00,2013-11-14 13:05:00,
2013-11-14 08:10:00,24.3,14.6,29.41,SSE,150,0.0,0.0,66,0.00,,SKC,0.00,VWS V14.00,2013-11-14 13:10:00,
2013-11-14 08:15:00,24.4,14.7,29.41,SSE,151,0.0,0.0,66,0.00,,SKC,0.00,VWS V14.00,2013-11-14 13:15:00,
2013-11-14 08:20:00,24.6,14.9,29.41,SSE,150,0.0,0.0,66,0.00,,SKC,0.00,VWS V14.00,2013-11-14 13:20:00,
2013-11-14 08:25:00,25.0,15.2,29.41,SSE,150,0.0,0.0,66,0.00,,SKC,0.00,VWS V14.00,2013-11-14 13:25:00,
2013-11-14 08:30:00,25.2,15.4,29.41,SSE,151,0.0,0.0,66,0.00,,SKC,0.00,VWS V14.00,2013-11-14 13:30:00,
2013-11-14 08:35:00,25.3,15.6,29.44,SSE,151,0.0,0.0,66,0.00,,SKC,0.00,VWS V14.00,2013-11-14 13:35:00,
2013-11-14 08:40:00,25.7,16.3,29.44,SSE,151,0.0,0.0,67,0.00,,SKC,0.00,VWS V14.00,2013-11-14 13:40:00,
2013-11-14 08:45:00,25.9,16.5,29.44,SSE,151,0.0,0.0,67,0.00,,SKC,0.00,VWS V14.00,2013-11-14 13:45:00,
2013-11-14 08:50:00,26.2,16.8,29.44,SSE,151,0.0,0.0,67,0.00,,SKC,0.00,VWS V14.00,2013-11-14 13:50:00,
2013-11-14 08:55:00,26.6,17.1,29.44,SSE,151,0.0,0.0,67,0.00,,SKC,0.00,VWS V14.00,2013-11-14 13:55:00,
2013-11-14 09:00:00,27.3,18.2,29.44,ESE,113,0.0,0.0,68,0.00,,SKC,0.00,VWS V14.00,2013-11-14 14:00:00,
2013-11-14 09:05:00,27.7,18.5,29.44,ESE,113,0.0,0.0,68,0.00,,SKC,0.00,VWS V14.00,2013-11-14 14:05:00,
2013-11-14 09:10:00,28.0,18.9,29.44,ESE,113,0.0,0.0,68,0.00,,SKC,0.00,VWS V14.00,2013-11-14 14:10:00,
2013-11-14 09:15:00,28.2,18.7,29.44,ESE,113,0.0,0.0,67,0.00,,SKC,0.00,VWS V14.00,2013-11-14 14:15:00,
2013-11-14 09:20:00,28.6,19.0,29.44,ESE,113,0.0,0.0,67,0.00,,SKC,0.00,VWS V14.00,2013-11-14 14:20:00,
2013-11-14 09:25:00,28.8,19.2,29.44,ESE,113,0.0,0.0,67,0.00,,SKC,0.00,VWS V14.00,2013-11-14 14:25:00,
2013-11-14 09:30:00,29.5,19.9,29.44,East,95,0.0,0.0,67,0.00,,SKC,0.00,VWS V14.00,2013-11-14 14:30:00,
2013-11-14 09:35:00,30.2,20.2,29.44,NW,315,0.0,0.0,66,0.00,,SKC,0.00,VWS V14.00,2013-11-14 14:35:00,
2013-11-14 09:40:00,30.9,20.2,29.44,ENE,63,0.0,0.0,64,0.00,,SKC,0.00,VWS V14.00,2013-11-14 14:40:00,
2013-11-14 09:45:00,31.8,20.3,29.44,NNE,19,0.0,0.0,62,0.00,,SKC,0.00,VWS V14.00,2013-11-14 14:45:00,
2013-11-14 09:50:00,32.5,20.2,29.44,NNE,31,0.0,4.0,60,0.00,,SKC,0.00,VWS V14.00,2013-11-14 14:50:00,
2013-11-14 09:55:00,33.1,20.3,29.44,NNE,31,0.0,0.0,59,0.00,,SKC,0.00,VWS V14.00,2013-11-14 14:55:00,
2013-11-14 10:00:00,33.4,20.3,29.44,NNE,31,0.0,0.0,58,0.00,,SKC,0.00,VWS V14.00,2013-11-14 15:00:00,
2013-11-14 10:05:00,33.8,20.2,29.41,NNE,31,0.0,0.0,57,0.00,,SKC,0.00,VWS V14.00,2013-11-14 15:05:00,
2013-11-14 10:10:00,34.3,20.3,29.41,NE,56,0.0,0.0,56,0.00,,SKC,0.00,VWS V14.00,2013-11-14 15:10:00,
2013-11-14 10:15:00,34.5,20.0,29.41,ENE,63,0.0,0.0,55,0.00,,SKC,0.00,VWS V14.00,2013-11-14 15:15:00,
2013-11-14 10:20:00,34.9,19.9,29.41,ENE,62,0.0,0.0,54,0.00,,SKC,0.00,VWS V14.00,2013-11-14 15:20:00,
2013-11-14 10:26:00,35.8,20.3,29.41,WNW,294,0.0,0.0,53,0.00,,SKC,0.00,VWS V14.00,2013-11-14 15:26:00,
2013-11-14 10:31:00,36.1,20.7,29.41,SW,220,0.0,0.0,53,0.00,,SKC,0.00,VWS V14.00,2013-11-14 15:31:00,
2013-11-14 10:36:00,36.3,20.4,29.41,SSW,192,0.0,0.0,52,0.00,,SKC,0.00,VWS V14.00,2013-11-14 15:36:00,
2013-11-14 10:41:00,36.9,20.0,29.41,NNE,24,0.0,0.0,50,0.00,,SKC,0.00,VWS V14.00,2013-11-14 15:41:00,
2013-11-14 10:46:00,37.6,20.6,29.41,ENE,60,0.0,2.7,50,0.00,,SKC,0.00,VWS V14.00,2013-11-14 15:46:00,
2013-11-14 10:51:00,37.9,21.0,29.41,SW,231,0.0,0.0,50,0.00,,SKC,0.00,VWS V14.00,2013-11-14 15:51:00,
2013-11-14 10:56:00,38.1,21.1,29.41,SW,229,0.0,0.0,50,0.00,,SKC,0.00,VWS V14.00,2013-11-14 15:56:00,
2013-11-14 11:01:00,38.7,21.2,29.41,West,279,0.0,0.0,49,0.00,,SKC,0.00,VWS V14.00,2013-11-14 16:01:00,
2013-11-14 11:06:00,39.2,21.2,29.41,SSW,207,0.0,0.0,48,0.00,,SKC,0.00,VWS V14.00,2013-11-14 16:06:00,
2013-11-14 11:11:00,39.7,20.7,29.41,SSW,207,0.0,0.0,46,0.00,,SKC,0.00,VWS V14.00,2013-11-14 16:11:00,
2013-11-14 11:16:00,40.5,20.8,29.41,SW,214,0.0,0.0,45,0.00,,SKC,0.00,VWS V14.00,2013-11-14 16:16:00,
2013-11-14 11:21:00,41.2,19.9,29.41,South,179,3.2,3.2,42,0.00,,SKC,0.00,VWS V14.00,2013-11-14 16:21:00,
2013-11-14 11:26:00,41.7,20.9,29.41,SSW,199,0.0,3.6,43,0.00,,SKC,0.00,VWS V14.00,2013-11-14 16:26:00,
2013-11-14 11:31:00,42.4,21.0,29.41,SSW,196,0.0,0.0,42,0.00,,SKC,0.00,VWS V14.00,2013-11-14 16:31:00,
2013-11-14 11:36:00,43.0,20.9,29.41,East,93,0.0,0.0,41,0.00,,SKC,0.00,VWS V14.00,2013-11-14 16:36:00,
2013-11-14 11:41:00,43.7,21.0,29.41,NE,49,0.0,0.0,40,0.00,,SKC,0.00,VWS V14.00,2013-11-14 16:41:00,
2013-11-14 11:46:00,44.2,21.5,29.41,NW,311,0.0,0.0,40,0.00,,SKC,0.00,VWS V14.00,2013-11-14 16:46:00,
2013-11-14 11:51:00,44.8,20.7,29.38,NNE,22,0.0,2.2,38,0.00,,SKC,0.00,VWS V14.00,2013-11-14 16:51:00,
2013-11-14 11:56:00,45.3,21.2,29.38,NW,311,3.8,4.9,38,0.00,,SKC,0.00,VWS V14.00,2013-11-14 16:56:00,
2013-11-14 12:01:00,45.9,21.7,29.38,NW,308,4.3,4.3,38,0.00,,SKC,0.00,VWS V14.00,2013-11-14 17:01:00,
2013-11-14 12:06:00,46.2,22.0,29.38,NW,323,4.3,5.8,38,0.00,,SKC,0.00,VWS V14.00,2013-11-14 17:06:00,
2013-11-14 12:11:00,46.8,21.9,29.38,NNW,327,0.0,2.2,37,0.00,,SKC,0.00,VWS V14.00,2013-11-14 17:11:00,
2013-11-14 12:16:00,47.3,22.4,29.38,NNW,331,0.0,2.2,37,0.00,,SKC,0.00,VWS V14.00,2013-11-14 17:16:00,
2013-11-14 12:21:00,47.5,22.5,29.38,NNW,335,0.0,0.0,37,0.00,,SKC,0.00,VWS V14.00,2013-11-14 17:21:00,
2013-11-14 12:26:00,48.4,23.3,29.38,NNW,329,0.0,0.0,37,0.00,,SKC,0.00,VWS V14.00,2013-11-14 17:26:00,
2013-11-14 12:31:00,48.9,23.8,29.38,NW,317,0.0,0.0,37,0.00,,SKC,0.00,VWS V14.00,2013-11-14 17:31:00,
2013-11-14 12:36:00,49.3,23.5,29.35,NNW,331,0.0,4.0,36,0.00,,SKC,0.00,VWS V14.00,2013-11-14 17:36:00,
2013-11-14 12:41:00,49.6,22.4,29.35,West,281,0.0,0.0,34,0.00,,SKC,0.00,VWS V14.00,2013-11-14 17:41:00,
2013-11-14 12:46:00,50.2,22.9,29.35,NNW,339,0.0,4.0,34,0.00,,SKC,0.00,VWS V14.00,2013-11-14 17:46:00,
2013-11-14 12:51:00,50.5,22.5,29.35,SSE,160,0.0,0.0,33,0.00,,SKC,0.00,VWS V14.00,2013-11-14 17:51:00,
2013-11-14 12:56:00,50.9,22.8,29.35,SW,224,0.0,0.0,33,0.00,,SKC,0.00,VWS V14.00,2013-11-14 17:56:00,
2013-11-14 13:01:00,51.6,23.5,29.35,WSW,240,0.0,4.0,33,0.00,,SKC,0.00,VWS V14.00,2013-11-14 18:01:00,
2013-11-14 13:06:00,52.2,24.0,29.35,WSW,244,0.0,4.0,33,0.00,,SKC,0.00,VWS V14.00,2013-11-14 18:06:00,
2013-11-14 13:11:00,52.7,22.9,29.35,NW,326,3.8,5.8,31,0.00,,SKC,0.00,VWS V14.00,2013-11-14 18:11:00,
2013-11-14 13:16:00,53.1,24.7,29.35,SW,227,0.0,5.8,33,0.00,,SKC,0.00,VWS V14.00,2013-11-14 18:16:00,
2013-11-14 13:21:00,53.4,23.6,29.32,NNW,343,0.0,0.0,31,0.00,,SKC,0.00,VWS V14.00,2013-11-14 18:21:00,
2013-11-14 13:26:00,53.6,23.7,29.32,WSW,245,0.0,0.0,31,0.00,,SKC,0.00,VWS V14.00,2013-11-14 18:26:00,
2013-11-14 13:31:00,53.8,22.3,29.32,WNW,291,0.0,0.0,29,0.00,,SKC,0.00,VWS V14.00,2013-11-14 18:31:00,
2013-11-14 13:36:00,54.1,23.4,29.32,SSW,208,0.0,0.0,30,0.00,,SKC,0.00,VWS V14.00,2013-11-14 18:36:00,
2013-11-14 13:41:00,54.7,23.1,29.32,SW,223,0.0,0.0,29,0.00,,SKC,0.00,VWS V14.00,2013-11-14 18:41:00,
2013-11-14 13:46:00,55.0,23.4,29.32,SSE,161,0.0,3.1,29,0.00,,SKC,0.00,VWS V14.00,2013-11-14 18:46:00,
2013-11-14 13:51:00,55.4,23.7,29.29,SW,236,0.0,0.0,29,0.00,,SKC,0.00,VWS V14.00,2013-11-14 18:51:00,
2013-11-14 13:56:00,55.6,23.0,29.29,NW,325,0.0,3.6,28,0.00,,SKC,0.00,VWS V14.00,2013-11-14 18:56:00,
2013-11-14 14:01:00,55.6,23.0,29.29,NW,317,0.0,0.0,28,0.00,,SKC,0.00,VWS V14.00,2013-11-14 19:01:00,
2013-11-14 14:06:00,55.9,22.5,29.29,NW,318,3.8,3.8,27,0.00,,SKC,0.00,VWS V14.00,2013-11-14 19:06:00,
2013-11-14 14:11:00,55.8,22.3,29.29,NW,317,0.0,0.0,27,0.00,,SKC,0.00,VWS V14.00,2013-11-14 19:11:00,
2013-11-14 14:16:00,55.9,23.3,29.29,SW,217,0.0,5.8,28,0.00,,SKC,0.00,VWS V14.00,2013-11-14 19:16:00,
2013-11-14 14:21:00,55.9,22.5,29.29,WNW,302,0.0,3.1,27,0.00,,SKC,0.00,VWS V14.00,2013-11-14 19:21:00,
2013-11-14 14:26:00,55.8,22.3,29.29,SW,226,0.0,4.9,27,0.00,,SKC,0.00,VWS V14.00,2013-11-14 19:26:00,
2013-11-14 14:31:00,55.8,21.4,29.29,WNW,286,3.2,3.2,26,0.00,,SKC,0.00,VWS V14.00,2013-11-14 19:31:00,
2013-11-14 14:36:00,55.6,21.3,29.26,NW,317,4.3,4.9,26,0.00,,SKC,0.00,VWS V14.00,2013-11-14 19:36:00,
2013-11-14 14:41:00,55.4,21.1,29.26,NW,322,0.0,0.0,26,0.00,,SKC,0.00,VWS V14.00,2013-11-14 19:41:00,
2013-11-14 14:46:00,55.4,21.1,29.26,SSW,210,0.0,4.0,26,0.00,,SKC,0.00,VWS V14.00,2013-11-14 19:46:00,
2013-11-14 14:51:00,55.4,21.1,29.26,SSE,163,0.0,3.6,26,0.00,,SKC,0.00,VWS V14.00,2013-11-14 19:51:00,
2013-11-14 14:56:00,55.2,21.8,29.26,SSW,194,0.0,3.6,27,0.00,,SKC,0.00,VWS V14.00,2013-11-14 19:56:00,
2013-11-14 15:01:00,55.4,22.0,29.26,SSW,194,0.0,0.0,27,0.00,,SKC,0.00,VWS V14.00,2013-11-14 20:01:00,
2013-11-14 15:06:00,55.4,22.0,29.26,NW,313,0.0,0.0,27,0.00,,SKC,0.00,VWS V14.00,2013-11-14 20:06:00,
2013-11-14 15:11:00,55.2,22.7,29.26,WNW,299,0.0,0.0,28,0.00,,SKC,0.00,VWS V14.00,2013-11-14 20:11:00,
2013-11-14 15:16:00,55.0,22.5,29.26,NW,325,0.0,0.0,28,0.00,,SKC,0.00,VWS V14.00,2013-11-14 20:16:00,
2013-11-14 15:21:00,54.9,21.5,29.26,NW,312,0.0,0.0,27,0.00,,SKC,0.00,VWS V14.00,2013-11-14 20:21:00,
2013-11-14 15:26:00,54.7,21.4,29.26,WSW,258,0.0,2.7,27,0.00,,SKC,0.00,VWS V14.00,2013-11-14 20:26:00,
2013-11-14 15:31:00,54.7,21.4,29.26,WSW,246,0.0,0.0,27,0.00,,SKC,0.00,VWS V14.00,2013-11-14 20:31:00,
2013-11-14 15:36:00,54.5,21.2,29.26,NW,310,0.0,0.0,27,0.00,,SKC,0.00,VWS V14.00,2013-11-14 20:36:00,
2013-11-14 15:41:00,54.5,21.2,29.26,SSE,156,0.0,0.0,27,0.00,,SKC,0.00,VWS V14.00,2013-11-14 20:41:00,
2013-11-14 15:46:00,54.5,20.3,29.26,SSE,156,0.0,0.0,26,0.00,,SKC,0.00,VWS V14.00,2013-11-14 20:46:00,
2013-11-14 15:51:00,54.3,20.2,29.26,South,189,3.2,3.6,26,0.00,,SKC,0.00,VWS V14.00,2013-11-14 20:51:00,
2013-11-14 15:57:00,54.3,21.1,29.26,SSW,205,0.0,3.6,27,0.00,,SKC,0.00,VWS V14.00,2013-11-14 20:57:00,
2013-11-14 16:02:00,54.1,20.9,29.26,SSW,207,0.0,0.0,27,0.00,,SKC,0.00,VWS V14.00,2013-11-14 21:02:00,
2013-11-14 16:07:00,54.0,20.8,29.23,SW,215,0.0,0.0,27,0.00,,SKC,0.00,VWS V14.00,2013-11-14 21:07:00,
2013-11-14 16:12:00,53.8,20.6,29.23,SW,216,0.0,0.0,27,0.00,,SKC,0.00,VWS V14.00,2013-11-14 21:12:00,
2013-11-14 16:17:00,53.6,20.5,29.23,South,172,0.0,0.0,27,0.00,,SKC,0.00,VWS V14.00,2013-11-14 21:17:00,
2013-11-14 16:22:00,53.4,20.3,29.23,South,169,0.0,0.0,27,0.00,,SKC,0.00,VWS V14.00,2013-11-14 21:22:00,
2013-11-14 16:27:00,53.2,20.1,29.23,SSW,199,0.0,0.0,27,0.00,,SKC,0.00,VWS V14.00,2013-11-14 21:27:00,
2013-11-14 16:32:00,53.1,20.0,29.23,SSW,199,0.0,0.0,27,0.00,,SKC,0.00,VWS V14.00,2013-11-14 21:32:00,
2013-11-14 16:37:00,52.7,20.5,29.23,SSW,199,0.0,0.0,28,0.00,,SKC,0.00,VWS V14.00,2013-11-14 21:37:00,
2013-11-14 16:42:00,52.5,19.5,29.23,SSW,199,0.0,0.0,27,0.00,,SKC,0.00,VWS V14.00,2013-11-14 21:42:00,
2013-11-14 16:47:00,52.3,19.4,29.23,SSW,199,0.0,0.0,27,0.00,,SKC,0.00,VWS V14.00,2013-11-14 21:47:00,
2013-11-14 16:52:00,52.2,19.2,29.23,South,172,0.0,0.0,27,0.00,,SKC,0.00,VWS V14.00,2013-11-14 21:52:00,
2013-11-14 16:57:00,51.6,19.6,29.23,South,171,0.0,0.0,28,0.00,,SKC,0.00,VWS V14.00,2013-11-14 21:57:00,
2013-11-14 17:02:00,51.4,19.4,29.23,South,171,0.0,0.0,28,0.00,,SKC,0.00,VWS V14.00,2013-11-14 22:02:00,
2013-11-14 17:07:00,51.1,19.1,29.23,South,171,0.0,0.0,28,0.00,,SKC,0.00,VWS V14.00,2013-11-14 22:07:00,
2013-11-14 17:12:00,50.7,18.8,29.23,South,172,0.0,0.0,28,0.00,,SKC,0.00,VWS V14.00,2013-11-14 22:12:00,
2013-11-14 17:17:00,50.2,18.4,29.23,South,172,0.0,0.0,28,0.00,,SKC,0.00,VWS V14.00,2013-11-14 22:17:00,
2013-11-14 17:22:00,50.0,18.2,29.23,South,171,0.0,0.0,28,0.00,,SKC,0.00,VWS V14.00,2013-11-14 22:22:00,
2013-11-14 17:27:00,49.5,18.5,29.23,South,171,0.0,0.0,29,0.00,,SKC,0.00,VWS V14.00,2013-11-14 22:27:00,
2013-11-14 17:32:00,48.9,18.1,29.23,South,171,0.0,0.0,29,0.00,,SKC,0.00,VWS V14.00,2013-11-14 22:32:00,
2013-11-14 17:37:00,48.4,18.4,29.23,South,172,0.0,0.0,30,0.00,,SKC,0.00,VWS V14.00,2013-11-14 22:37:00,
2013-11-14 17:42:00,48.0,18.1,29.23,South,171,0.0,0.0,30,0.00,,SKC,0.00,VWS V14.00,2013-11-14 22:42:00,
2013-11-14 17:47:00,47.7,18.5,29.23,South,171,0.0,0.0,31,0.00,,SKC,0.00,VWS V14.00,2013-11-14 22:47:00,
2013-11-14 17:52:00,47.3,18.2,29.23,South,171,0.0,0.0,31,0.00,,SKC,0.00,VWS V14.00,2013-11-14 22:52:00,
2013-11-14 17:57:00,46.8,17.7,29.23,South,172,0.0,0.0,31,0.00,,SKC,0.00,VWS V14.00,2013-11-14 22:57:00,
2013-11-14 18:02:00,46.6,18.3,29.23,South,172,0.0,0.0,32,0.00,,SKC,0.00,VWS V14.00,2013-11-14 23:02:00,
2013-11-14 18:07:00,46.2,18.7,29.23,South,171,0.0,0.0,33,0.00,,SKC,0.00,VWS V14.00,2013-11-14 23:07:00,
2013-11-14 18:12:00,45.9,19.1,29.23,South,172,0.0,0.0,34,0.00,,SKC,0.00,VWS V14.00,2013-11-14 23:12:00,
2013-11-14 18:17:00,45.7,19.6,29.23,South,171,0.0,0.0,35,0.00,,SKC,0.00,VWS V14.00,2013-11-14 23:17:00,
2013-11-14 18:22:00,45.3,20.0,29.23,South,171,0.0,0.0,36,0.00,,SKC,0.00,VWS V14.00,2013-11-14 23:22:00,
2013-11-14 18:27:00,44.6,20.0,29.23,South,172,0.0,0.0,37,0.00,,SKC,0.00,VWS V14.00,2013-11-14 23:27:00,
2013-11-14 18:32:00,44.2,20.3,29.23,South,171,0.0,0.0,38,0.00,,SKC,0.00,VWS V14.00,2013-11-14 23:32:00,
2013-11-14 18:37:00,44.1,20.1,29.23,South,171,0.0,0.0,38,0.00,,SKC,0.00,VWS V14.00,2013-11-14 23:37:00,
2013-11-14 18:42:00,43.7,19.8,29.23,South,171,0.0,0.0,38,0.00,,SKC,0.00,VWS V14.00,2013-11-14 23:42:00,
2013-11-14 18:47:00,43.3,19.5,29.23,South,171,0.0,0.0,38,0.00,,SKC,0.00,VWS V14.00,2013-11-14 23:47:00,
2013-11-14 18:52:00,43.2,19.9,29.23,South,171,0.0,0.0,39,0.00,,SKC,0.00,VWS V14.00,2013-11-14 23:52:00,
2013-11-14 18:57:00,43.0,19.7,29.23,South,171,0.0,0.0,39,0.00,,SKC,0.00,VWS V14.00,2013-11-14 23:57:00,
2013-11-14 19:02:00,42.8,19.6,29.23,South,171,0.0,0.0,39,0.00,,SKC,0.00,VWS V14.00,2013-11-15 00:02:00,
2013-11-14 19:07:00,42.3,19.1,29.23,South,171,0.0,0.0,39,0.00,,SKC,0.00,VWS V14.00,2013-11-15 00:07:00,
2013-11-14 19:12:00,41.9,19.4,29.23,South,172,0.0,0.0,40,0.00,,SKC,0.00,VWS V14.00,2013-11-15 00:12:00,
2013-11-14 19:17:00,41.5,19.0,29.23,South,171,0.0,0.0,40,0.00,,SKC,0.00,VWS V14.00,2013-11-15 00:17:00,
2013-11-14 19:22:00,41.5,19.0,29.23,South,171,0.0,0.0,40,0.00,,SKC,0.00,VWS V14.00,2013-11-15 00:22:00,
2013-11-14 19:27:00,41.2,18.7,29.23,South,171,0.0,0.0,40,0.00,,SKC,0.00,VWS V14.00,2013-11-15 00:27:00,
2013-11-14 19:32:00,41.0,19.1,29.23,South,171,0.0,0.0,41,0.00,,SKC,0.00,VWS V14.00,2013-11-15 00:32:00,
2013-11-14 19:37:00,40.6,18.8,29.23,South,171,0.0,0.0,41,0.00,,SKC,0.00,VWS V14.00,2013-11-15 00:37:00,
2013-11-14 19:42:00,40.5,18.6,29.23,South,171,0.0,0.0,41,0.00,,SKC,0.00,VWS V14.00,2013-11-15 00:42:00,
2013-11-14 19:47:00,40.3,18.5,29.23,South,171,0.0,0.0,41,0.00,,SKC,0.00,VWS V14.00,2013-11-15 00:47:00,
2013-11-14 19:52:00,40.3,19.0,29.23,South,171,0.0,0.0,42,0.00,,SKC,0.00,VWS V14.00,2013-11-15 00:52:00,
2013-11-14 19:57:00,39.9,18.7,29.23,South,171,0.0,0.0,42,0.00,,SKC,0.00,VWS V14.00,2013-11-15 00:57:00,
2013-11-14 20:02:00,39.7,18.5,29.23,South,171,0.0,0.0,42,0.00,,SKC,0.00,VWS V14.00,2013-11-15 01:02:00,
2013-11-14 20:07:00,39.6,18.4,29.23,South,171,0.0,0.0,42,0.00,,SKC,0.00,VWS V14.00,2013-11-15 01:07:00,
2013-11-14 20:12:00,39.4,18.2,29.23,South,171,0.0,0.0,42,0.00,,SKC,0.00,VWS V14.00,2013-11-15 01:12:00,
2013-11-14 20:17:00,39.2,18.0,29.23,South,171,0.0,0.0,42,0.00,,SKC,0.00,VWS V14.00,2013-11-15 01:17:00,
2013-11-14 20:22:00,38.7,18.1,29.23,South,171,0.0,0.0,43,0.00,,SKC,0.00,VWS V14.00,2013-11-15 01:22:00,
2013-11-14 20:27:00,37.9,17.5,29.23,South,171,0.0,0.0,43,0.00,,SKC,0.00,VWS V14.00,2013-11-15 01:27:00,
2013-11-14 20:32:00,37.6,17.1,29.23,South,171,0.0,0.0,43,0.00,,SKC,0.00,VWS V14.00,2013-11-15 01:32:00,
2013-11-14 20:37:00,37.6,17.7,29.23,South,171,0.0,0.0,44,0.00,,SKC,0.00,VWS V14.00,2013-11-15 01:37:00,
2013-11-14 20:42:00,37.6,17.7,29.23,South,171,0.0,0.0,44,0.00,,SKC,0.00,VWS V14.00,2013-11-15 01:42:00,
2013-11-14 20:47:00,37.6,17.7,29.23,South,171,0.0,0.0,44,0.00,,SKC,0.00,VWS V14.00,2013-11-15 01:47:00,
2013-11-14 20:52:00,37.4,17.5,29.23,South,171,0.0,0.0,44,0.00,,SKC,0.00,VWS V14.00,2013-11-15 01:52:00,
2013-11-14 20:57:00,37.2,17.9,29.23,South,171,0.0,0.0,45,0.00,,SKC,0.00,VWS V14.00,2013-11-15 01:57:00,
2013-11-14 21:02:00,37.0,17.7,29.23,South,171,0.0,0.0,45,0.00,,SKC,0.00,VWS V14.00,2013-11-15 02:02:00,
2013-11-14 21:07:00,36.9,17.5,29.23,South,171,0.0,0.0,45,0.00,,SKC,0.00,VWS V14.00,2013-11-15 02:07:00,
2013-11-14 21:13:00,36.5,17.2,29.23,South,171,0.0,0.0,45,0.00,,SKC,0.00,VWS V14.00,2013-11-15 02:13:00,
2013-11-14 21:18:00,36.3,17.5,29.23,South,171,0.0,0.0,46,0.00,,SKC,0.00,VWS V14.00,2013-11-15 02:18:00,
2013-11-14 21:23:00,36.1,17.4,29.23,South,171,0.0,0.0,46,0.00,,SKC,0.00,VWS V14.00,2013-11-15 02:23:00,
2013-11-14 21:28:00,36.0,17.2,29.23,South,171,0.0,0.0,46,0.00,,SKC,0.00,VWS V14.00,2013-11-15 02:28:00,
2013-11-14 21:33:00,35.4,17.2,29.23,South,172,0.0,0.0,47,0.00,,SKC,0.00,VWS V14.00,2013-11-15 02:33:00,
2013-11-14 21:38:00,34.5,16.9,29.23,South,171,0.0,0.0,48,0.00,,SKC,0.00,VWS V14.00,2013-11-15 02:38:00,
2013-11-14 21:43:00,34.3,17.2,29.23,South,171,0.0,0.0,49,0.00,,SKC,0.00,VWS V14.00,2013-11-15 02:43:00,
2013-11-14 21:48:00,34.3,17.6,29.23,South,171,0.0,0.0,50,0.00,,SKC,0.00,VWS V14.00,2013-11-15 02:48:00,
2013-11-14 21:53:00,34.2,17.5,29.23,South,171,0.0,0.0,50,0.00,,SKC,0.00,VWS V14.00,2013-11-15 02:53:00,
2013-11-14 21:58:00,34.2,17.5,29.23,South,172,0.0,0.0,50,0.00,,SKC,0.00,VWS V14.00,2013-11-15 02:58:00,
2013-11-14 22:03:00,34.2,17.5,29.23,South,171,0.0,0.0,50,0.00,,SKC,0.00,VWS V14.00,2013-11-15 03:03:00,
2013-11-14 22:08:00,34.0,17.8,29.23,SE,144,0.0,0.0,51,0.00,,SKC,0.00,VWS V14.00,2013-11-15 03:08:00,
2013-11-14 22:13:00,33.8,17.6,29.23,SW,216,0.0,0.0,51,0.00,,SKC,0.00,VWS V14.00,2013-11-15 03:13:00,
2013-11-14 22:18:00,33.6,17.4,29.23,SW,216,0.0,0.0,51,0.00,,SKC,0.00,VWS V14.00,2013-11-15 03:18:00,
2013-11-14 22:23:00,33.6,17.9,29.23,SW,216,0.0,0.0,52,0.00,,SKC,0.00,VWS V14.00,2013-11-15 03:23:00,
2013-11-14 22:28:00,33.3,17.5,29.23,SW,215,0.0,0.0,52,0.00,,SKC,0.00,VWS V14.00,2013-11-15 03:28:00,
2013-11-14 22:33:00,33.3,17.5,29.23,SW,216,0.0,0.0,52,0.00,,SKC,0.00,VWS V14.00,2013-11-15 03:33:00,
2013-11-14 22:38:00,33.1,17.4,29.23,SW,216,0.0,0.0,52,0.00,,SKC,0.00,VWS V14.00,2013-11-15 03:38:00,
2013-11-14 22:43:00,32.9,17.7,29.23,SW,216,0.0,0.0,53,0.00,,SKC,0.00,VWS V14.00,2013-11-15 03:43:00,
2013-11-14 22:48:00,32.7,17.5,29.23,SW,216,0.0,0.0,53,0.00,,SKC,0.00,VWS V14.00,2013-11-15 03:48:00,
2013-11-14 22:53:00,32.5,17.3,29.23,SW,215,0.0,0.0,53,0.00,,SKC,0.00,VWS V14.00,2013-11-15 03:53:00,
2013-11-14 22:58:00,32.7,17.5,29.23,SW,216,0.0,0.0,53,0.00,,SKC,0.00,VWS V14.00,2013-11-15 03:58:00,
2013-11-14 23:03:00,32.7,17.5,29.23,SW,215,0.0,0.0,53,0.00,,SKC,0.00,VWS V14.00,2013-11-15 04:03:00,
2013-11-14 23:08:00,32.7,17.5,29.23,SW,216,0.0,0.0,53,0.00,,SKC,0.00,VWS V14.00,2013-11-15 04:08:00,
2013-11-14 23:13:00,32.5,17.3,29.23,SW,216,0.0,0.0,53,0.00,,SKC,0.00,VWS V14.00,2013-11-15 04:13:00,
2013-11-14 23:18:00,32.5,17.3,29.23,SW,216,0.0,0.0,53,0.00,,SKC,0.00,VWS V14.00,2013-11-15 04:18:00,
2013-11-14 23:23:00,32.5,17.3,29.23,SW,216,0.0,0.0,53,0.00,,SKC,0.00,VWS V14.00,2013-11-15 04:23:00,
2013-11-14 23:28:00,32.2,17.0,29.23,SW,215,0.0,0.0,53,0.00,,SKC,0.00,VWS V14.00,2013-11-15 04:28:00,
2013-11-14 23:33:00,32.0,17.2,29.23,SW,215,0.0,0.0,54,0.00,,SKC,0.00,VWS V14.00,2013-11-15 04:33:00,
2013-11-14 23:38:00,31.8,17.1,29.23,SSW,208,0.0,0.0,54,0.00,,SKC,0.00,VWS V14.00,2013-11-15 04:38:00,
2013-11-14 23:43:00,31.6,16.9,29.23,SSW,208,0.0,0.0,54,0.00,,SKC,0.00,VWS V14.00,2013-11-15 04:43:00,
2013-11-14 23:48:00,31.5,17.2,29.23,SSW,208,0.0,0.0,55,0.00,,SKC,0.00,VWS V14.00,2013-11-15 04:48:00,
2013-11-14 23:53:00,31.3,17.0,29.23,SSW,208,0.0,0.0,55,0.00,,SKC,0.00,VWS V14.00,2013-11-15 04:53:00,
2013-11-14 23:58:00,31.3,17.0,29.23,SSW,208,0.0,0.0,55,0.00,,SKC,0.00,VWS V14.00,2013-11-15 04:58:00,